RH
54 60 63 61 59 56 48 46 29 31 33 41 56 65 65 60 33 31 35 40 46 54 43 36 23 17 20 25 26 28 36 45 51 50 43 40 51 52 56 52 54 60 69
48 45 44 52 42 38 26 19 32 46 50 38 37 43 56 42 35 32 34 31 38 29 21 16 21 33 54 56 35 44 60 69 77 68 66 55 44 53 54 59 56 63 62
41 39 31 32 24 16 20 34 39 22 13 8 10 11 24 31 47 12 18 14 13 16 29 33 40 45 26 36 62 72 68 58 56 79 71 71 71 59 58 56 50 71 72
18 20 25 12 16 25 40 34 20 9 8 9 10 11 10 7 7 6 12 9 12 20 20 17 31 26 23 12 45 44 46 49 71 71 73 70 49 50 46 42 53 65 86
13 13 12 17 12 16 23 27 14 11 14 15 15 13 12 10 7 5 5 12 17 18 20 6 7 27 43 14 9 19 29 36 41 43 57 53 45 43 36 31 35 47 73
8 14 18 14 16 19 18 18 19 19 11 6 6 7 13 18 18 15 20 27 28 20 15 14 16 11 8 8 8 8 8 8 9 14 20 31 30 32 22 24 27 21 33
15 19 18 15 12 12 13 12 8 4 4 6 7 7 5 5 6 5 4 4 4 4 4 5 6 7 10 16 19 18 19 19 19 18 16 16 17 32 16 18 26 28 22
11 10 5 4 4 4 5 5 5 6 7 10 10 10 9 8 8 8 9 10 10 10 10 10 10 10 10 7 6 5 4 4 4 4 4 6 10 14 12 7 7 26 28
4 4 4 5 4 5 7 7 8 9 9 10 11 12 13 14 15 17 18 19 18 16 14 13 12 12 12 13 14 14 14 12 10 7 5 4 4 4 6 16 15 13 43
5 5 6 6 7 8 8 9 10 11 12 13 14 16 17 19 23 27 30 32 34 35 36 38 40 40 31 18 15 15 16 17 18 17 13 16 9 6 4 4 9 19 18
6 7 7 7 8 9 10 11 12 12 13 13 14 16 18 22 27 32 33 35 34 35 37 39 42 47 50 48 46 42 34 24 19 19 16 21 16 13 11 7 5 6 28
7 7 8 8 10 10 11 10 10 11 12 14 18 23 27 30 32 32 36 38 42 47 50 51 51 51 50 48 48 48 47 47 45 36 24 20 20 18 15 14 13 9 25
7 7 8 9 9 9 9 9 13 19 24 25 27 31 36 40 42 40 37 35 38 42 42 47 50 51 52 54 56 54 50 50 47 45 41 36 28 22 20 20 17 14 11
8 8 8 8 9 10 13 17 24 30 32 33 34 37 42 43 42 39 37 37 42 44 46 45 44 46 48 49 51 54 54 51 48 46 39 48 47 41 35 28 24 22 19
7 9 12 14 19 23 24 27 30 34 40 42 43 46 47 47 46 43 41 44 46 48 51 50 49 46 46 47 49 50 51 48 46 46 43 48 49 47 45 43 37 29 26
14 19 24 27 29 29 28 29 31 40 44 49 49 48 50 49 49 48 44 43 44 52 54 52 49 47 45 44 44 45 46 46 46 47 46 44 46 46 48 47 45 44 39
25 28 32 32 33 32 34 40 45 49 50 49 49 45 44 45 46 49 48 50 50 48 46 44 39 34 32 30 29 28 31 35 37 39 43 40 43 46 45 43 47 47 47
26 31 33 31 32 37 43 54 57 50 53 54 53 50 47 48 48 46 44 37 31 30 28 25 22 20 21 24 23 22 20 23 22 28 30 33 29 34 44 45 46 46 50
33 38 42 43 41 35 35 42 46 52 55 51 49 48 48 47 43 41 38 35 32 31 36 38 41 34 33 39 43 36 33 32 27 24 24 27 31 28 28 34 41 45 49
38 46 47 50 43 48 44 54 54 55 52 51 48 45 48 44 42 36 31 31 33 31 36 43 42 42 41 40 34 32 33 34 30 29 27 31 27 27 31 19 30 39 40
41 43 48 45 49 52 55 60 62 57 53 57 62 59 61 52 43 35 34 34 35 37 37 39 43 44 45 59 53 59 45 42 36 33 36 31 28 24 25 30 18 30 29
47 51 53 53 58 65 65 65 68 65 65 65 54 49 39 31 35 37 40 41 40 39 40 42 42 43 43 46 56 64 60 50 46 45 42 44 34 29 24 21 22 23 19
52 57 63 66 67 66 69 67 68 67 58 48 36 36 38 45 49 62 55 49 51 54 49 48 48 49 47 48 54 61 61 64 64 54 43 27 28 17 12 8 9 10 10
55 61 58 54 56 64 66 57 49 43 38 39 38 44 50 56 59 59 54 49 51 54 48 46 44 38 35 29 39 55 59 59 64 60 57 34 8 6 5 5 6 5 5
49 48 54 58 60 53 44 41 41 41 43 47 54 52 57 59 55 53 49 49 46 44 38 32 26 21 20 20 20 18 13 10 8 8 7 13 52 13 10 7 6 5 4
56 58 58 56 47 42 48 48 50 54 57 54 53 57 52 51 50 44 38 35 34 34 34 31 24 19 16 15 14 13 13 13 12 11 11 11 11 48 14 12 12 9 7
Wind_Speed
24 24 23 24 24 26 28 28 22 20 18 16 16 17 18 15 13 13 15 18 17 19 22 22 18 16 17 18 20 20 20 21 21 23 23 26 25 26 28 31 35 35 34
26 27 27 26 28 26 21 20 18 15 14 14 13 13 13 14 15 16 17 20 22 22 20 19 19 17 18 18 17 20 20 20 21 21 24 25 29 27 28 27 29 36 40
26 26 27 25 19 20 18 15 10 13 14 13 14 15 15 16 18 17 19 19 18 19 19 19 19 18 18 18 17 17 20 20 22 24 25 26 28 26 27 28 27 30 38
25 21 15 14 14 11 8 7 12 13 13 13 13 13 14 14 12 12 13 13 14 14 15 16 16 18 19 18 17 19 20 23 22 25 26 26 29 25 30 30 29 29 31
12 10 10 11 11 10 11 13 13 13 14 14 14 14 13 12 10 9 9 9 11 12 13 14 14 16 18 19 18 19 20 24 25 27 28 28 30 26 31 31 31 29 30
7 9 10 10 10 10 10 10 10 10 10 10 12 14 13 10 9 9 10 11 11 12 12 13 13 13 14 15 16 18 20 20 21 23 25 26 30 29 28 30 32 31 33
7 7 8 9 8 7 7 6 7 8 9 11 12 12 12 11 9 9 8 9 9 9 9 8 8 9 11 13 14 14 15 16 17 18 20 22 25 27 28 28 32 34 32
3 5 6 7 9 9 8 6 6 6 6 8 8 9 9 9 9 9 10 10 11 11 13 13 12 13 12 12 12 13 13 14 15 16 17 18 18 22 25 27 30 33 34
9 8 7 7 6 5 4 4 5 6 8 9 9 8 8 9 9 10 10 11 12 13 15 15 15 15 15 15 17 17 18 18 19 19 20 16 19 18 19 22 28 32 32
7 5 4 2 2 3 5 7 8 9 10 11 11 12 12 12 13 13 14 15 16 17 17 17 17 18 19 20 21 21 21 22 22 22 24 23 22 20 19 20 23 27 30
3 2 3 4 6 8 9 11 12 13 15 16 17 18 19 20 20 20 21 23 24 26 27 27 27 25 23 22 22 23 25 26 26 26 24 26 25 25 24 23 23 22 25
5 7 8 9 10 12 14 16 18 19 19 20 20 21 22 23 25 26 27 29 30 30 30 30 30 31 31 31 30 31 30 29 29 30 28 29 28 27 25 26 26 25 22
9 10 12 13 15 17 18 20 20 21 22 24 26 27 28 29 29 30 30 30 31 31 32 31 33 35 35 35 35 33 34 34 34 34 33 34 32 31 30 28 28 27 27
12 14 16 17 18 21 22 22 23 24 27 30 32 32 32 33 34 33 33 33 34 37 37 37 37 37 37 36 37 36 35 35 36 37 37 35 37 36 35 34 33 32 31
14 16 18 19 21 23 25 26 28 30 32 35 36 36 35 36 35 35 35 37 39 41 41 39 40 40 38 39 40 41 41 39 37 37 39 34 38 39 38 38 39 38 38
15 18 20 23 26 28 30 32 33 34 36 38 38 39 40 40 39 40 41 42 45 46 42 42 42 41 40 39 39 39 42 43 43 42 44 42 42 42 42 42 42 43 43
18 22 24 26 29 31 32 33 34 36 37 40 42 42 41 41 43 44 44 45 46 43 42 41 41 41 40 41 42 43 43 45 45 44 45 48 45 47 46 47 47 47 47
23 24 27 31 33 33 34 33 35 37 39 41 41 42 43 45 45 45 46 45 44 45 44 45 45 46 46 47 47 48 48 47 48 47 47 48 49 46 47 49 49 50 51
26 29 33 35 35 35 37 39 39 42 43 45 46 47 46 46 46 47 48 49 49 51 53 53 53 54 53 52 52 53 51 51 51 51 52 51 51 52 50 48 51 51 52
29 33 36 38 40 41 43 43 44 46 47 49 50 50 49 50 51 53 55 57 58 59 60 60 62 62 64 63 63 62 61 61 61 60 59 56 57 56 55 58 51 54 55
33 37 39 42 43 45 46 47 49 50 52 53 53 52 53 53 55 57 60 62 62 63 64 65 65 66 67 68 68 65 67 66 67 67 64 63 63 63 60 59 62 58 57
38 41 43 44 46 47 49 50 51 53 54 54 54 54 57 58 58 60 63 67 67 66 67 69 70 71 71 71 68 66 67 70 71 69 71 67 67 66 67 65 65 64 66
41 42 44 46 47 48 51 52 53 54 52 53 55 56 57 59 64 68 69 69 69 71 74 75 76 76 76 74 74 71 70 67 67 68 72 77 73 69 63 68 71 69 66
41 43 46 48 49 49 51 50 50 52 53 56 58 59 61 64 64 68 71 73 74 76 78 78 78 79 79 77 76 75 75 72 69 70 69 69 74 72 71 63 66 71 70
43 45 48 48 48 47 48 50 53 54 56 58 62 65 66 68 70 72 73 74 75 77 78 79 80 81 81 81 80 79 77 74 73 75 74 71 65 75 73 73 71 69 71
44 44 46 44 46 48 51 54 55 57 60 64 66 68 71 73 73 73 74 76 78 80 81 81 81 82 81 83 84 84 85 83 80 79 78 78 77 69 71 71 73 76 73
Wind_Direction
275 277 283 286 291 297 302 304 303 307 310 307 304 295 293 297 299 298 298 304 304 300 298 304 298 297 295 284 267 258 254 256 256 254 253 255 259 256 257 259 260 254 255
277 285 291 295 301 303 301 312 321 325 325 318 312 318 306 300 303 299 303 301 306 305 303 301 299 298 303 295 270 263 259 260 252 252 250 249 250 254 258 255 255 254 250
292 296 298 303 309 310 309 320 332 326 325 327 326 317 307 303 299 303 304 303 303 304 302 297 294 293 301 301 280 275 272 270 266 258 254 255 249 256 251 252 252 251 246
295 298 308 306 321 335 340 345 337 328 327 323 319 315 312 312 310 313 309 309 302 296 289 288 285 286 286 288 282 274 272 271 272 270 265 268 272 260 259 256 250 250 248
300 303 306 316 330 340 338 330 327 328 324 326 322 317 310 309 308 313 323 316 304 304 302 305 297 294 285 286 282 279 276 272 272 268 268 270 276 273 266 261 254 251 253
304 312 317 328 340 337 331 327 327 331 347 3 9 3 351 337 332 326 323 320 319 316 311 310 305 297 290 285 285 284 281 281 279 276 272 270 271 268 269 265 261 257 252
310 307 338 348 358 7 13 17 23 26 19 0 355 356 3 5 7 359 354 347 340 334 333 331 323 315 307 297 290 287 288 288 286 285 282 279 275 272 273 269 264 261 258
327 13 58 58 52 57 53 33 19 2 339 336 335 335 337 334 332 327 324 319 317 313 310 310 308 304 300 296 294 294 292 290 288 287 286 287 287 289 283 275 269 264 259
103 93 80 57 42 15 24 19 352 337 333 321 320 325 325 325 326 322 319 319 318 312 307 306 302 296 292 289 288 287 286 286 286 285 283 287 279 285 288 286 276 272 268
97 84 61 45 311 309 327 326 320 312 304 301 306 308 306 304 307 311 309 310 308 305 301 295 293 291 290 287 284 282 282 281 280 280 279 282 277 276 275 281 285 278 274
66 7 310 305 307 311 316 316 309 310 312 314 316 317 317 316 313 312 309 309 307 307 304 301 299 297 291 286 285 284 282 278 276 275 273 274 275 273 271 272 277 286 278
316 303 314 318 313 317 316 311 311 311 311 312 312 311 311 307 304 303 302 302 303 303 299 294 292 291 291 290 288 288 284 281 277 273 267 268 269 268 268 267 267 272 268
304 308 309 310 311 310 306 308 312 313 313 311 309 307 306 306 306 306 305 304 304 303 301 297 296 293 289 287 285 283 284 284 282 282 279 266 263 262 263 263 265 264 266
313 314 313 311 311 305 308 310 310 310 309 308 308 307 307 307 306 306 304 302 302 302 299 298 296 293 290 287 285 282 280 278 278 278 277 273 269 265 263 261 261 262 262
306 308 309 307 308 314 314 309 307 309 309 308 307 304 303 302 302 302 300 298 300 301 297 293 292 290 287 285 284 282 280 278 275 273 274 269 269 267 266 264 261 259 259
304 305 309 313 317 314 309 308 306 306 305 304 303 302 302 302 299 299 298 296 296 298 296 294 293 292 289 285 282 280 280 279 277 276 276 274 271 268 266 263 262 260 257
303 310 311 309 308 307 306 302 300 301 302 303 301 299 297 295 297 297 297 296 297 297 297 295 293 292 291 290 288 287 284 281 279 275 273 275 273 273 270 268 265 261 258
306 304 304 306 309 308 308 300 296 297 299 299 298 296 295 297 298 298 298 297 297 296 294 293 292 291 290 287 285 284 282 279 279 278 277 275 273 268 268 268 266 264 261
303 304 305 304 304 302 302 300 297 296 297 299 300 299 300 299 300 300 299 299 299 301 300 300 298 296 296 295 295 292 288 286 283 278 276 276 275 273 269 262 265 263 260
300 301 304 302 302 301 299 298 297 298 299 300 300 301 303 301 302 301 302 303 303 302 302 301 300 298 297 297 296 294 292 289 286 286 283 279 274 271 272 269 262 261 261
299 298 299 297 299 296 297 299 299 300 300 301 302 304 303 301 300 302 303 302 302 301 299 297 296 295 294 293 292 291 289 288 286 285 285 282 279 276 274 273 269 267 262
294 293 294 294 295 296 297 297 299 299 300 301 302 303 300 299 299 299 301 301 300 298 297 297 295 294 293 293 291 288 285 285 286 284 281 281 279 278 277 274 272 271 270
290 290 290 291 292 295 295 296 296 296 300 301 299 298 299 300 298 298 299 298 297 297 297 296 296 295 293 291 289 286 284 282 281 282 282 278 280 276 275 276 273 271 268
287 289 290 292 293 293 294 296 299 299 298 298 298 299 298 299 298 297 299 301 301 298 297 296 294 293 292 290 288 286 284 283 279 278 280 280 279 279 278 271 269 268 267
287 289 290 290 291 294 297 299 299 299 299 299 298 297 300 300 301 301 300 299 298 296 295 295 294 294 293 291 289 286 284 283 280 278 277 276 275 274 274 274 271 265 264
290 289 293 296 298 299 300 302 301 300 299 297 299 302 302 301 301 301 302 302 301 300 298 295 294 292 290 288 287 285 284 282 280 278 276 274 272 267 268 266 264 265 262